Location: Hains Lake
(37.8540°N, 99.8578°W)
Time: 09:19:04
(UTC+00:00)

Tiros 1 despin weight - Pass Details

Date: 26 April 2021
Orbit: 593 x 642 km, 48.2° (Epoch: 07 May)

Event Time Altitude Azimuth Distance (km) Brightness Sun altitude
Rises 15:12:05 0° 303° (WNW) 2,887 ? 38.7°
Reaches altitude 10° 15:14:24 10° 303° (WNW) 1,970 ? 39.2°
Maximum altitude 15:18:56 88° 221° (SW) 610 ? 40.0°
Drops below altitude 10° 15:23:23 10° 126° (SE) 1,933 ? 40.9°
Sets 15:25:39 0° 126° (SE) 2,826 ? 41.3°
